Centralia, IL

6:27 PM CDT on August 31, 2016 (GMT -0500)
Centralia Municipal

Weather History for KENL - May, 2013

Change the Weather History Date:

Thursday, May 9, 2013

  Actual Average (KSLO) Record (KSLO)
Temperature  
Mean Temperature 74 °F -  
Max Temperature 81 °F 74 °F 88 °F (1963)
Min Temperature 66 °F 50 °F 33 °F (1960)
Cooling Degree Days 8    
Growing Degree Days 24 (Base 50)    
Moisture  
Dew Point 62 °F    
Average Humidity 70    
Maximum Humidity 83    
Minimum Humidity 53    
Precipitation  
Precipitation 0.06 in - - ()
Sea Level Pressure  
Sea Level Pressure 29.93 in    
Wind  
Wind Speed 8 mph (South)    
Max Wind Speed 20 mph    
Max Gust Speed 29 mph    
Visibility 10 miles    
Events Rain , Thunderstorm    
Averages and records for this station are not official NWS values.
T = Trace of Precipitation, MM = Missing Value Source: NWS Daily Summary

Daily Weather History Graph

Daily Weather History Graph

Search for Another Location

Airport or City:

Trip Planner

Search our weather history database for the weather conditions in past years. The results will help you decide how hot, cold, wet, or windy it might be!

Date:

Astronomy

May. 09, 2013 Rise Set
Actual Time 5:50 AM CDT 7:55 PM CDT
Civil Twilight 5:20 AM CDT 8:25 PM CDT
Nautical Twilight 4:45 AM CDT 9:01 PM CDT
Astronomical Twilight 4:06 AM CDT 9:40 PM CDT
Moon 5:34 AM CDT (5/9) 7:51 PM CDT (5/9)
Length of Visible Light 15h 04m
Length of Day
14h 05m
Waning Crescent, 0% of the Moon is Illuminated
May 9
Waning Crescent
May 9
New
May 17
First Quarter
May 24
Full
May 31
Last Quarter

Hourly Weather History & Observations

Time (CDT) Temp. Heat Index Dew Point Humidity Pressure Visibility Wind Dir Wind Speed Gust Speed Precip Events Conditions
12:35 AM 68.5 °F - 61.7 °F 79% 30.00 in 10.0 mi Calm Calm - N/A   Overcast
12:55 AM 67.8 °F - 62.6 °F 83% 30.00 in 10.0 mi Calm Calm - N/A   Overcast
2:15 AM 67.3 °F - 62.1 °F 83% 29.99 in 10.0 mi Calm Calm - N/A Rain Light Rain
2:35 AM 68.9 °F - 59.9 °F 73% 29.99 in 10.0 mi South 5.8 mph - N/A   Mostly Cloudy
2:55 AM 68.4 °F - 60.8 °F 77% 29.99 in 10.0 mi SSE 8.1 mph - N/A   Mostly Cloudy
5:15 AM 66.4 °F - 58.1 °F 75% 29.98 in 10.0 mi SE 5.8 mph - N/A   Mostly Cloudy
5:55 AM 66.4 °F - 57.2 °F 72% 29.98 in 10.0 mi SE 6.9 mph - N/A   Scattered Clouds
6:35 AM 66.2 °F - 57.2 °F 73% 29.99 in 10.0 mi SE 8.1 mph - N/A Thunderstorm Scattered Clouds
6:55 AM 66.2 °F - 57.2 °F 73% 29.99 in 10.0 mi SE 9.2 mph - N/A   Scattered Clouds
8:15 AM 72.5 °F - 61.2 °F 67% 29.98 in 10.0 mi SSE 11.5 mph - N/A   Scattered Clouds
8:35 AM 71.2 °F - 61.3 °F 71% 29.98 in 10.0 mi SSE 10.4 mph - N/A   Scattered Clouds
9:15 AM 75.0 °F - 62.6 °F 65% 29.97 in 10.0 mi SSE 12.7 mph 16.1 mph N/A Thunderstorm Clear
9:35 AM 75.7 °F - 63.7 °F 66% 29.98 in 10.0 mi South 10.4 mph - N/A   Clear
9:55 AM 76.5 °F - 63.0 °F 63% 29.98 in 10.0 mi South 13.8 mph 17.3 mph N/A Thunderstorm Clear
10:15 AM 77.2 °F - 63.7 °F 63% 29.98 in 10.0 mi South 13.8 mph 20.7 mph N/A   Clear
10:35 AM 77.2 °F - 63.7 °F 63% 29.98 in 10.0 mi South 13.8 mph 19.6 mph N/A   Clear
10:55 AM 78.1 °F - 63.7 °F 61% 29.98 in 10.0 mi South 15.0 mph 18.4 mph N/A   Clear
11:15 AM 78.1 °F - 63.5 °F 61% 29.97 in 10.0 mi South 15.0 mph - N/A   Clear
11:35 AM 78.3 °F - 63.5 °F 60% 29.97 in 10.0 mi South 17.3 mph 24.2 mph N/A   Scattered Clouds
11:55 AM 76.8 °F - 62.8 °F 62% 29.97 in 10.0 mi South 15.0 mph 21.9 mph N/A Rain , Thunderstorm Light Thunderstorms and Rain
12:15 PM 76.1 °F - 62.8 °F 63% 29.97 in 10.0 mi South 18.4 mph 21.9 mph N/A   Scattered Clouds
12:35 PM 77.0 °F - 63.9 °F 64% 29.96 in 10.0 mi South 12.7 mph 21.9 mph N/A Thunderstorm Thunderstorm
12:55 PM 72.7 °F - 64.4 °F 75% 29.96 in 5.0 mi SSW 13.8 mph 23.0 mph 0.01 in Rain , Thunderstorm Light Thunderstorms and Rain
1:15 PM 73.2 °F - 65.3 °F 76% 29.94 in 10.0 mi SSW 5.8 mph - N/A Rain Light Rain
1:35 PM 74.3 °F - 65.5 °F 74% 29.93 in 10.0 mi SSW 6.9 mph - N/A   Clear
1:55 PM 76.8 °F - 66.6 °F 70% 29.92 in 10.0 mi SSE 11.5 mph 16.1 mph N/A   Clear
2:35 PM 79.2 °F - 65.7 °F 63% 29.90 in 10.0 mi SSE 16.1 mph - N/A   Clear
3:15 PM 81.1 °F 83.2 °F 65.8 °F 60% 29.88 in 10.0 mi SSE 11.5 mph 19.6 mph N/A   Clear
3:35 PM 80.6 °F 81.9 °F 63.3 °F 55% 29.86 in 10.0 mi South 18.4 mph 24.2 mph N/A   Clear
3:55 PM 79.0 °F - 60.8 °F 54% 29.85 in 10.0 mi South 13.8 mph 26.5 mph N/A Thunderstorm Scattered Clouds
4:15 PM 78.1 °F - 59.5 °F 53% 29.83 in 10.0 mi South 19.6 mph - N/A Thunderstorm Scattered Clouds
4:35 PM 76.6 °F - 60.8 °F 58% 29.87 in 10.0 mi WNW 15.0 mph 28.8 mph N/A Thunderstorm Mostly Cloudy
4:55 PM 74.5 °F - 61.2 °F 63% 29.86 in 10.0 mi SSW 11.5 mph - N/A Rain Light Rain
5:15 PM 72.9 °F - 64.2 °F 74% 29.88 in 10.0 mi SW 5.8 mph 12.7 mph N/A Rain Light Rain
5:35 PM 72.0 °F - 65.1 °F 79% 29.89 in 10.0 mi West 11.5 mph 16.1 mph N/A Thunderstorm Mostly Cloudy
5:55 PM 70.9 °F - 65.7 °F 83% 29.88 in 10.0 mi SW 5.8 mph - 0.05 in   Mostly Cloudy
6:15 PM 71.8 °F - 66.2 °F 83% 29.88 in 10.0 mi SSW 5.8 mph - N/A   Mostly Cloudy
6:35 PM 73.0 °F - 64.4 °F 74% 29.87 in 10.0 mi SSW 11.5 mph - N/A   Scattered Clouds
6:55 PM 72.5 °F - 63.0 °F 72% 29.87 in 10.0 mi South 8.1 mph - N/A   Scattered Clouds
7:15 PM 71.2 °F - 62.4 °F 74% 29.87 in 10.0 mi SSE 9.2 mph - N/A   Clear
7:35 PM 70.7 °F - 62.6 °F 75% 29.87 in 10.0 mi South 8.1 mph - N/A   Scattered Clouds
7:55 PM 70.3 °F - 62.6 °F 76% 29.88 in 10.0 mi South 6.9 mph - N/A   Mostly Cloudy
8:15 PM 70.0 °F - 62.4 °F 77% 29.89 in 10.0 mi South 6.9 mph - N/A   Scattered Clouds
8:35 PM 70.0 °F - 62.4 °F 77% 29.90 in 10.0 mi South 5.8 mph - N/A   Mostly Cloudy
8:55 PM 70.0 °F - 61.3 °F 74% 29.90 in 10.0 mi South 6.9 mph - N/A   Mostly Cloudy
9:15 PM 69.3 °F - 61.3 °F 76% 29.91 in 10.0 mi South 5.8 mph - N/A   Mostly Cloudy
9:35 PM 69.8 °F - 60.8 °F 73% 29.91 in 10.0 mi South 8.1 mph - N/A   Mostly Cloudy
9:55 PM 71.8 °F - 60.6 °F 68% 29.91 in 10.0 mi SSW 9.2 mph - N/A Rain Light Rain
10:15 PM 71.8 °F - 60.3 °F 67% 29.91 in 10.0 mi SSW 8.1 mph - N/A   Overcast
10:35 PM 71.6 °F - 60.8 °F 69% 29.91 in 10.0 mi South 9.2 mph - N/A   Overcast
10:55 PM 70.9 °F - 60.1 °F 69% 29.90 in 10.0 mi South 8.1 mph - N/A   Mostly Cloudy
11:15 PM 71.4 °F - 59.7 °F 66% 29.91 in 10.0 mi SSW 8.1 mph - N/A   Scattered Clouds
11:35 PM 70.2 °F - 60.4 °F 71% 29.90 in 10.0 mi SW 6.9 mph - N/A Rain Light Rain
11:55 PM 69.8 °F - 60.8 °F 73% 29.90 in 10.0 mi SSW 9.2 mph - N/A   Mostly Cloudy